Погода в Новы-Тарге

Польша     49°28′35″N   20°01′45″E
темп.,
°C
ветер,
м/с
пор.,
м/с
влажн.,
%
обл.,
%
осадки,
мм/ч
давл.,
гПа
погр.,
м
2 марта, вт
вт201:00−2зюз12810 0.0 103721
04:00−2зюз12810 0.0 103521
07:00−1зюз22730 0.0 103625
10:00+6з23500 0.0 1034198
13:00+10з23430 0.0 1034486
16:00+8сз11600 0.0 103322
19:00+2юз12740 0.0 103422
22:00+1зюз12770 0.0 103422
3 марта, ср
ср301:00+1зюз11730 0.0 103422
04:000юз12710 0.0 103222
07:00+1юз12670 0.0 103222
10:00+8з12480 0.0 1031202
13:00+12з12410 0.0 1029525
16:00+10юз125327 0.0 102637
19:00+3юз227219 0.0 102622
22:00+2зюз23842 0.0 102530
4 марта, чт
чт401:000зюз238619 0.0 102452
04:00+1зюз248245 0.0 102170
07:00+1з238070 0.0 102063
10:00+8з496037 0.0 1018572
13:00+11зюз585641 0.0 10151073
16:00+9зюз496594 0.0 1013618
19:00+5з258097 0.0 1012131
22:00+4юз2482100 0.0 1011119
5 марта, пт
пт501:00+3сз3695100 1.5 1012412
04:000ссз3698100 4.3 1012368
07:00−1с2492100 5.6 1014435
10:00−1с3584100 0.5 1016591
13:00−1с4583100 0.9 1018723
16:00−2с4669100 0.3 10191039
19:00−5ссз128386 0.4 102350
22:00−5зсз128415 0.1 102541
6 марта, сб
сб601:00−5з248235 0.2 1026239
04:00−5зсз2786100 0.3 1027382
07:00−5ссз4886100 1.1 1029852
10:00−3ссз456162 0.3 10311314
13:00−2ссз345564 0.3 10311463
16:00−3сз345997 0.1 10301242
19:00−5з127662 0.1 103121
22:00−6юз23780 0.0 103184